User: anonymous   Login
Location: Harbor Island
(32.3990°N, 80.4435°W)
Time: 13:10:56
(UTC-04:00)
Language:

Cosmos 1455 - Orbit

View from above orbital plane
View from above orbital plane
View from above satellite
View from above satellite

Ground track
Ground track

The orbit data is extracted from the following two-line orbital elements,

1 14032U 83037A   16274.76377528  .00001573  00000-0  78716-4 0  9995
2 14032  82.5187 343.3345 0019371 100.0458 260.2962 15.16511118822051
Epoch (UTC): 30 September 2016 18:19:50
Eccentricity: 0.0019371
inclination: 82.5187°
perigee height: 503 km
apogee height: 530 km
right ascension of ascending node: 343.3345°
argument of perigee: 100.0458°
revolutions per day: 15.16511118
mean anomaly at epoch: 260.2962°
orbit number at epoch: 82205

The dashed part of the orbit path shows where the satellite is in the earth's shadow,  

DLR